Location: Camp at the Woods
(43.2055°N, 93.0905°W)
Time: 09:11:30
(UTC+00:00)

BlueWalker 3 - Pass Details

Date: 16 April 2024
Orbit: 482 x 494 km, 53.2° (Epoch: 22 May)

Event Time Altitude Azimuth Distance (km) Brightness Sun altitude
Exits shadow 10:41:29 - 286° (WNW) 2,039 4.6 -8.8°
Reaches altitude 10° 10:42:33 10° 278° (W) 1,698 4.1 -8.6°
Maximum altitude 10:45:22 20° 230° (SW) 1,201 3.3 -8.1°
Drops below altitude 10° 10:48:11 10° 182° (S) 1,685 4.4 -7.7°
Sets 10:50:46 0° 165° (SSE) 2,559 5.5 -7.2°
